TimeMST,TemperatureF,Dew PointF,Humidity,Sea Level PressureIn,VisibilityMPH,Wind Direction,Wind SpeedMPH,Gust SpeedMPH,PrecipitationIn,Events,Conditions,WindDirDegrees,DateUTC
12:53 AM,27.0,16.0,63,30.49,10.0,North,3.5,-,N/A,,Clear,350,2012-11-23 07:53:00
1:53 AM,26.1,16.0,66,30.50,10.0,North,4.6,-,N/A,,Clear,350,2012-11-23 08:53:00
2:53 AM,25.0,16.0,69,30.52,10.0,Calm,Calm,-,N/A,,Clear,0,2012-11-23 09:53:00
3:53 AM,25.0,16.0,69,30.51,10.0,ESE,3.5,-,N/A,,Clear,110,2012-11-23 10:53:00
4:53 AM,24.1,14.0,65,30.52,10.0,SSE,3.5,-,N/A,,Clear,160,2012-11-23 11:53:00
5:53 AM,24.1,12.9,62,30.52,10.0,SSE,3.5,-,N/A,,Clear,150,2012-11-23 12:53:00
6:53 AM,21.9,12.0,66,30.55,10.0,Calm,Calm,-,N/A,,Clear,0,2012-11-23 13:53:00
7:53 AM,25.0,12.9,60,30.57,10.0,Calm,Calm,-,N/A,,Clear,0,2012-11-23 14:53:00
8:53 AM,27.0,15.1,61,30.57,10.0,South,4.6,-,N/A,,Clear,170,2012-11-23 15:53:00
9:53 AM,33.1,17.1,52,30.54,10.0,Calm,Calm,-,N/A,,Clear,0,2012-11-23 16:53:00
10:53 AM,37.9,15.1,39,30.51,10.0,SW,4.6,-,N/A,,Clear,220,2012-11-23 17:53:00
11:53 AM,42.1,17.1,37,30.46,10.0,Variable,5.8,-,N/A,,Clear,0,2012-11-23 18:53:00
12:53 PM,46.9,10.0,22,30.41,10.0,SW,4.6,-,N/A,,Clear,220,2012-11-23 19:53:00
1:53 PM,48.0,15.1,27,30.39,10.0,SW,9.2,-,N/A,,Clear,220,2012-11-23 20:53:00
2:53 PM,48.9,14.0,25,30.36,10.0,WSW,9.2,-,N/A,,Clear,240,2012-11-23 21:53:00
3:53 PM,48.0,17.1,29,30.36,10.0,SW,10.4,-,N/A,,Clear,230,2012-11-23 22:53:00
4:53 PM,39.0,17.1,41,30.40,10.0,WSW,9.2,-,N/A,,Clear,240,2012-11-23 23:53:00
5:53 PM,41.0,16.0,36,30.38,10.0,WSW,6.9,-,N/A,,Clear,240,2012-11-24 00:53:00
6:53 PM,39.0,17.1,41,30.40,10.0,SSW,5.8,-,N/A,,Clear,210,2012-11-24 01:53:00
7:53 PM,35.1,19.0,52,30.41,10.0,WSW,9.2,-,N/A,,Clear,250,2012-11-24 02:53:00
8:53 PM,36.0,19.0,50,30.38,10.0,WSW,8.1,-,N/A,,Clear,240,2012-11-24 03:53:00
9:53 PM,34.0,18.0,52,30.35,10.0,SW,8.1,-,N/A,,Clear,230,2012-11-24 04:53:00
10:53 PM,35.1,19.0,52,30.31,10.0,SW,12.7,-,N/A,,Clear,230,2012-11-24 05:53:00
11:53 PM,36.0,18.0,48,30.28,10.0,SW,11.5,-,N/A,,Clear,230,2012-11-24 06:53:00